• In Belarus
  • List of Countries
  • For 7 days
  • Water Temperature
  • Weather Map
  • Weather Widgets
  • user-avatar
    Login

    Hourly Weather Linz

    Today, 12 November, Tuesday

    Time Temperature Precipitation Wind Pressure Humidity
    00:00 +4°C° 0 mm 1 mps 728 mmHg 88%
    01:00 +4°C° 0 mm 1 mps 728 mmHg 87%
    02:00 +4°C° 0 mm 1 mps 728 mmHg 86%
    03:00 +4°C° 0 mm 1 mps 728 mmHg 86%
    04:00 +4°C° 0 mm 1 mps 728 mmHg 85%
    05:00 +4°C° 0 mm 1 mps 728 mmHg 87%
    06:00 +4°C° 0 mm 1 mps 728 mmHg 88%
    07:00 +4°C° 0 mm 1 mps 728 mmHg 90%
    08:00 +5°C° 0.3 mm 1 mps 728 mmHg 91%
    09:00 +5°C° 0.3 mm 1 mps 728 mmHg 92%
    10:00 +5°C° 0.3 mm 1 mps 728 mmHg 93%
    11:00 +5°C° 0.4 mm 1 mps 727 mmHg 93%
    12:00 +6°C° 0.4 mm 1 mps 727 mmHg 92%
    13:00 +6°C° 0.4 mm 1 mps 727 mmHg 92%
    14:00 +6°C° 0.3 mm 1 mps 727 mmHg 93%
    15:00 +5°C° 0.3 mm 1 mps 726 mmHg 95%
    16:00 +5°C° 0.3 mm 1 mps 726 mmHg 96%
    17:00 +5°C° 0.8 mm 1 mps 726 mmHg 96%
    18:00 +5°C° 0.8 mm 1 mps 726 mmHg 97%
    19:00 +5°C° 0.8 mm 1 mps 726 mmHg 97%
    20:00 +5°C° 1.2 mm 1 mps 726 mmHg 97%
    21:00 +5°C° 1.2 mm 1 mps 726 mmHg 97%
    22:00 +4°C° 1.2 mm 1 mps 726 mmHg 97%
    23:00 +4°C° 0.3 mm 1 mps 725 mmHg 97%

    Tomorrow, 13 November, Wednesday

    Time Temperature Precipitation Wind Pressure Humidity
    00:00 +4°C° 0.3 mm 1 mps 725 mmHg 97%
    01:00 +3°C° 0.3 mm 2 mps 725 mmHg 97%
    02:00 +3°C° 0.1 mm 2 mps 725 mmHg 97%
    03:00 +3°C° 0.1 mm 2 mps 724 mmHg 97%
    04:00 +3°C° 0.1 mm 2 mps 724 mmHg 97%
    05:00 +3°C° 0.2 mm 2 mps 724 mmHg 97%
    06:00 +3°C° 0.2 mm 2 mps 723 mmHg 97%
    07:00 +3°C° 0.2 mm 2 mps 723 mmHg 96%
    08:00 +3°C° 0.6 mm 2 mps 723 mmHg 96%
    09:00 +3°C° 0.6 mm 2 mps 723 mmHg 96%
    10:00 +3°C° 0.6 mm 2 mps 723 mmHg 97%
    11:00 +3°C° 0.6 mm 2 mps 723 mmHg 97%
    12:00 +2°C° 0.6 mm 3 mps 723 mmHg 97%
    13:00 +2°C° 0.6 mm 3 mps 723 mmHg 97%
    14:00 +2°C° 1.1 mm 3 mps 723 mmHg 97%
    15:00 +2°C° 1.1 mm 3 mps 723 mmHg 97%
    16:00 +1°C° 1.1 mm 3 mps 723 mmHg 97%
    17:00 +1°C° 1 mm 3 mps 723 mmHg 97%
    18:00 +1°C° 1 mm 3 mps 724 mmHg 97%
    19:00 +1°C° 1 mm 3 mps 724 mmHg 97%
    20:00 +2°C° 0.1 mm 2 mps 725 mmHg 97%
    21:00 +2°C° 0.1 mm 2 mps 725 mmHg 96%
    22:00 +3°C° 0.1 mm 1 mps 726 mmHg 96%
    23:00 +3°C° 0 mm 1 mps 726 mmHg 95%

    Day after tomorrow, 14 November, Thursday

    Time Temperature Precipitation Wind Pressure Humidity
    00:00 +2°C° 0 mm 1 mps 726 mmHg 94%
    01:00 +2°C° 0 mm 1 mps 726 mmHg 92%
    02:00 +2°C° 0 mm 1 mps 726 mmHg 92%
    03:00 +2°C° 0 mm 1 mps 726 mmHg 92%
    04:00 +2°C° 0 mm 1 mps 725 mmHg 92%
    05:00 +2°C° 0 mm 1 mps 725 mmHg 92%
    06:00 -1°C° 0 mm 2 mps 725 mmHg 92%
    07:00 -1°C° 0 mm 2 mps 725 mmHg 92%
    08:00 +1°C° 0 mm 2 mps 725 mmHg 90%
    09:00 +1°C° 0 mm 3 mps 725 mmHg 88%
    10:00 +3°C° 0 mm 4 mps 725 mmHg 86%
    11:00 +3°C° 0 mm 3 mps 725 mmHg 86%
    12:00 +4°C° 0 mm 3 mps 725 mmHg 86%
    13:00 +6°C° 0 mm 2 mps 724 mmHg 86%
    14:00 +6°C° 0 mm 2 mps 724 mmHg 89%
    15:00 +5°C° 0 mm 2 mps 724 mmHg 91%
    16:00 +6°C° 0 mm 1 mps 724 mmHg 94%
    17:00 +5°C° 0 mm 2 mps 724 mmHg 95%
    18:00 +5°C° 0 mm 2 mps 724 mmHg 95%
    19:00 +4°C° 0 mm 2 mps 724 mmHg 96%
    20:00 +4°C° 0 mm 2 mps 724 mmHg 96%
    21:00 +4°C° 0 mm 2 mps 723 mmHg 96%
    22:00 +4°C° 0 mm 2 mps 723 mmHg 95%
    23:00 +4°C° 0 mm 2 mps 723 mmHg 95%

    15 November, Friday

    Time Temperature Precipitation Wind Pressure Humidity
    00:00 +3°C° 0 mm 3 mps 722 mmHg 95%
    01:00 +4°C° 0 mm 3 mps 722 mmHg 94%
    02:00 +4°C° 0 mm 3 mps 722 mmHg 93%
    03:00 +4°C° 0 mm 4 mps 722 mmHg 93%
    04:00 +4°C° 0 mm 4 mps 721 mmHg 92%
    05:00 +4°C° 0 mm 4 mps 721 mmHg 91%
    06:00 +4°C° 0 mm 4 mps 722 mmHg 91%
    07:00 +4°C° 0 mm 3 mps 722 mmHg 90%
    08:00 +5°C° 0 mm 3 mps 722 mmHg 88%
    09:00 +7°C° 0 mm 3 mps 723 mmHg 86%
    10:00 +9°C° 0 mm 3 mps 723 mmHg 84%
    11:00 +9°C° 0 mm 3 mps 723 mmHg 83%
    12:00 +10°C° 0 mm 4 mps 723 mmHg 82%
    13:00 +11°C° 0 mm 4 mps 723 mmHg 81%
    14:00 +10°C° 0 mm 3 mps 723 mmHg 84%
    15:00 +9°C° 0 mm 3 mps 723 mmHg 88%
    16:00 +8°C° 0 mm 2 mps 723 mmHg 92%
    17:00 +7°C° 0 mm 2 mps 724 mmHg 92%
    18:00 +8°C° 0 mm 1 mps 724 mmHg 93%
    19:00 +7°C° 0 mm 1 mps 724 mmHg 93%
    20:00 +7°C° 0 mm 1 mps 724 mmHg 93%
    21:00 +6°C° 0 mm 1 mps 725 mmHg 93%
    22:00 +6°C° 0 mm 1 mps 725 mmHg 94%
    23:00 +6°C° 0 mm 1 mps 725 mmHg 93%

    16 November, Saturday

    Time Temperature Precipitation Wind Pressure Humidity
    00:00 +6°C° 0 mm 1 mps 725 mmHg 93%
    01:00 +6°C° 0 mm 1 mps 725 mmHg 93%
    02:00 +6°C° 0 mm 1 mps 725 mmHg 93%
    03:00 +6°C° 0 mm 1 mps 725 mmHg 94%
    04:00 +6°C° 0 mm 1 mps 725 mmHg 94%
    05:00 +5°C° 0 mm 2 mps 725 mmHg 94%
    06:00 +5°C° 0 mm 2 mps 726 mmHg 93%
    07:00 +5°C° 0 mm 2 mps 727 mmHg 93%
    08:00 +5°C° 0 mm 2 mps 728 mmHg 91%
    09:00 +7°C° 0 mm 1 mps 729 mmHg 89%
    10:00 +7°C° 0 mm 1 mps 730 mmHg 86%
    11:00 +8°C° 0 mm 1 mps 730 mmHg 85%
    12:00 +9°C° 0 mm 1 mps 730 mmHg 83%
    13:00 +8°C° 0 mm 2 mps 731 mmHg 81%
    14:00 +9°C° 0 mm 1 mps 731 mmHg 83%
    15:00 +8°C° 0 mm 1 mps 731 mmHg 85%
    16:00 +7°C° 0 mm 0 mps 731 mmHg 88%
    17:00 +8°C° 0 mm 1 mps 731 mmHg 88%
    18:00 +8°C° 0 mm 1 mps 731 mmHg 89%
    19:00 +8°C° 0 mm 1 mps 731 mmHg 89%
    20:00 +6°C° 0 mm 2 mps 731 mmHg 91%
    21:00 +6°C° 0 mm 2 mps 731 mmHg 92%
    22:00 +6°C° 0 mm 2 mps 730 mmHg 93%
    23:00 +5°C° 0 mm 3 mps 730 mmHg 93%

    17 November, Sunday

    Time Temperature Precipitation Wind Pressure Humidity
    00:00 +7°C° 0 mm 3 mps 729 mmHg 92%
    01:00 +6°C° 0 mm 4 mps 728 mmHg 91%
    02:00 +7°C° 0 mm 5 mps 728 mmHg 89%
    03:00 +8°C° 0 mm 6 mps 727 mmHg 86%
    04:00 +9°C° 0 mm 7 mps 727 mmHg 84%
    05:00 +9°C° 0 mm 7 mps 726 mmHg 83%
    06:00 +9°C° 0 mm 7 mps 726 mmHg 81%
    07:00 +9°C° 0 mm 7 mps 726 mmHg 80%
    08:00 +10°C° 0 mm 8 mps 726 mmHg 78%
    09:00 +11°C° 0 mm 8 mps 726 mmHg 76%
    10:00 +12°C° 0 mm 8 mps 726 mmHg 74%
    11:00 +12°C° 0 mm 8 mps 725 mmHg 72%
    12:00 +13°C° 0 mm 8 mps 725 mmHg 69%
    13:00 +15°C° 0 mm 8 mps 725 mmHg 66%
    14:00 +15°C° 0 mm 7 mps 725 mmHg 69%
    15:00 +14°C° 0 mm 7 mps 724 mmHg 71%
    16:00 +13°C° 0 mm 6 mps 724 mmHg 74%
    17:00 +11°C° 0 mm 6 mps 724 mmHg 75%
    18:00 +11°C° 0 mm 6 mps 724 mmHg 77%
    19:00 +10°C° 0 mm 5 mps 725 mmHg 79%
    20:00 +10°C° 0 mm 5 mps 725 mmHg 80%
    21:00 +11°C° 0 mm 4 mps 725 mmHg 81%
    22:00 +10°C° 0 mm 4 mps 725 mmHg 82%
    23:00 +8°C° 0 mm 4 mps 725 mmHg 85%
    Show more